Regional Weather Roundup
Issued by NWS

Home | Current Version | Previous Version | Graphics & Text | Print | Product List | Glossary On
Versions: 1 2 3 4 5 6 7 8 9 10 11 12 13 14 15 16 17 18 19 20 21 22 23 24 25 26 27 28 29 30 31 32 33 34 35 36 37 38 39 40 41 42 43 44 45 46 47 48 49 50
000
ASUS43 KMKX 292321
RWRWI

WISCONSIN REGIONAL WEATHER ROUNDUP
NATIONAL WEATHER SERVICE MILWAUKEE/SULLIVAN WI
600 PM CDT SUN MAY 29 2016

NOTE: "FAIR" INDICATES FEW OR NO CLOUDS BELOW 12,000 FEET WITH NO
SIGNIFICANT WEATHER AND/OR OBSTRUCTIONS TO VISIBILITY.

WIZ001-002-006>008-014>016-023>028-300000-
NORTHWEST WISCONSIN

CITY           SKY/WX    TMP DP  RH WIND       PRES   REMARKS
SUPERIOR ARPT  MOSUNNY   72  55  54 NW14G21   29.88S
ASHLAND        CLOUDY    70  56  61 W10G18    29.88S
HAYWARD        PTSUNNY   71  54  54 VRB5      29.91S
SIREN          MOSUNNY   73  52  47 NW10G20   29.92S
CUMBERLAND     PTSUNNY   70  52  52 W12       29.93S
RICE LAKE      MOSUNNY   74  54  50 W13       29.94S
CHETEK         PTSUNNY   74  57  56 W5G16     29.92
LADYSMITH      MOSUNNY   73  55  53 W12G17    29.93S
EAU CLAIRE     MOSUNNY   75  56  51 W13       29.92F
MENOMONIE      MOSUNNY   76  56  48 W10       29.93S
NEW RICHMOND   SUNNY     75  54  48 W14       29.94S
OSCEOLA        MOSUNNY   76  55  49 W10G16    29.96S
$$

WIZ003>005-009-010-017-018-300000-
NORTH CENTRAL WISCONSIN

CITY           SKY/WX    TMP DP  RH WIND       PRES   REMARKS
MANITOWISH WTR NOT AVBL
ARBOR VITAE    CLOUDY    66  56  72 W9G20     29.91R
WOODRUFF       CLOUDY    66  56  72 W9G20     29.91R
RHINELANDER    CLOUDY    68  54  60 W18G30    29.90R
EAGLE RIVER      N/A     64  55  74 NW12G20   29.89R
LAND O LAKES   PTSUNNY   65  59  82 W9G18     29.89S
PHILLIPS       PTSUNNY   69  57  65 W3        29.91S
TOMAHAWK       PTSUNNY   69  55  59 W14G22    29.91R
MEDFORD        MOSUNNY   70  57  63 W14       29.93R
MERRILL        MOSUNNY   72  58  60 W14G21    29.91R
$$

WIZ029-030-035-036-043>047-300000-
CENTRAL WISCONSIN

CITY           SKY/WX    TMP DP  RH WIND       PRES   REMARKS
WAUSAU         PTSUNNY   74  57  55 W15       29.89S
MOSINEE        PTSUNNY   72  57  60 W15G22    29.92S
MARSHFIELD     MOSUNNY   72  56  57 W14       29.92R
STEVENS POINT  MOSUNNY   73  56  57 W10G21    29.92S
WAUPACA        SUNNY     76  57  51 W9G24     29.90F
WAUTOMA        MOSUNNY   77  57  50 W14       29.92
WISC RAPIDS    MOSUNNY   78  53  41 NW8       29.93S
CAMP DOUGLAS   SUNNY     76  63  63 W16       29.93S
$$

WIZ011>013-019>022-031-037>040-048>050-300000-
NORTHEAST WISCONSIN

CITY           SKY/WX    TMP DP  RH WIND       PRES   REMARKS
ANTIGO         SUNNY     69  59  68 W18G26    29.90S
SHAWANO        MOSUNNY   76  60  58 W10       29.88F
OCONTO         MOSUNNY   74  63  69 W16G22    29.86S
STURGEON BAY   NOT AVBL
GREEN BAY      MOSUNNY   75  61  61 W17G28    29.88F
MANITOWOC      SUNNY     75  59  57 W12       29.90S
APPLETON       PTSUNNY   73  57  56 W12G20    29.90S
CLINTONVILLE   MOSUNNY   73  55  53 W17       29.89S
OSHKOSH        SUNNY     76  58  53 W9        29.90S
$$

WIZ032>034-041-042-053>061-300000-
SOUTHWEST WISCONSIN

CITY           SKY/WX    TMP DP  RH WIND       PRES   REMARKS
LA CROSSE      PTSUNNY   76  63  64 W6        29.93S
SPARTA         MOSUNNY   78  57  49 W10G17    29.94F
VIROQUA        MOSUNNY   76  58  53 W12G17    29.97S
BOSCOBEL       MOSUNNY   80  60  50 SW7       29.96S HX  81
PRAIRIE DU CHI CLOUDY    76  57  51 W9G17     29.96S
PLATTEVILLE    SUNNY     78  58  50 W15       29.99S
$$

WIZ056-057-062-063-064-067-068-300000-
SOUTH CENTRAL WISCONSIN

CITY           SKY/WX    TMP DP  RH WIND       PRES   REMARKS
REEDSBURG      CLOUDY    76  59  56 W8        29.94F
BARABOO/DELLS  CLOUDY    74  54  50 W10       29.95S
LONE ROCK      MOSUNNY   73  62  68 W6        29.96S
MINERAL POINT  MOSUNNY   77  55  47 W14G22    29.99S
MADISON        PTSUNNY   75  56  51 VRB7      29.96R
MIDDLETON      CLOUDY    72  61  67 W8        29.97S
WATERTOWN      PTSUNNY   77  57  50 W17       29.95S
MONROE         SUNNY     77  55  47 W15G21    29.98F
JANESVILLE     MOSUNNY   81  55  41 W15       29.97S HX  80
$$

WIZ051-052-058>065-066-070>072-300000-
SOUTHEAST WISCONSIN

CITY           SKY/WX    TMP DP  RH WIND       PRES   REMARKS
MILWAUKEE      MOSUNNY   80  55  42 W15G21    29.94S HX  80
WAUKESHA       PTSUNNY   73  54  49 W12G23    29.96S
MILWAUKEE/TIMM MOSUNNY   79  52  38 MISG      29.95S
RACINE         SUNNY     80  55  42 W14G20    29.96S HX  80
BURLINGTON     SUNNY     77  53  44 W13       29.97R
KENOSHA        MOSUNNY   78  57  48 W14G25    29.96S
FOND DU LAC    SUNNY     77  58  51 W13G20    29.92R
SHEBOYGAN      MOSUNNY   76  58  53 W14G24    29.91S
WEST BEND      MOSUNNY   75  54  46 W13G21    29.93S
JUNEAU         SUNNY     76  54  46 W18G26    29.95S
$$

LSZ147-162-300000-
LAKE SUPERIOR

STATION/POSITION TIME  TEMP    WIND        PRES    WAVE
                       AIR SEA DIR/SP/G            HT/PER
                 (UTC) (F)     (DEG/KT/KT) (MB)    (FT/S)
W MID LAKE BUOY  2250   46 38  260/ 16/ 17 1010.0R   2/ 4
DEVILS ISLAND    2300   52     240/ 16/ 17 1011.3R
PORT WING        2100   60     260/ 14/ 21 1011.9R
SAXON HARBOR     2240   68     280/ 13/ 23 1011.2R
$$

LMZ867-665-643>646-300000-
LAKE MICHIGAN

STATION/POSITION TIME  TEMP    WIND        PRES    WAVE
                       AIR SEA DIR/SP/G            HT/PER
                 (UTC) (F)     (DEG/KT/KT) (MB)    (FT/S)
CHAMBERS ISLAND  2200   69     160/  6/ 10 1010.5S
N MID LAKE BUOY  2250   52 48  190/ 16/ 17 1009.8F   3/ 5
NORTHPORT PIER   2200   74     210/  4/ 13 1010.2F
KEWAUNEE LAKESHO 2200   73     260/ 12/ 16 1011.4F
SHEBOYGAN LAKESH 2300   76     280/ 15/ 18 1012.8F
PORT WASHINGTON  2200   80     270/  9/ 20 1013.5S
S MID LAKE BUOY  2250   58 51  190/ 10/ 12 1014.0F   1
KENOSHA   LAKESH 2300   80     270/ 15/ 21 1013.9S
$$

TC  - TEMPERATURE IN CELSIUS
VSB - VISIBILITY IN STATUTE MILES
WCI - WIND CHILL INDEX
HX  - HEAT INDEX





USA.gov is the U.S. government's official web portal to all federal, state and local government web resources and services.